Location: El Recuerdo
(3.6589°N, 75.6172°W)
Time: 23:56:51
(UTC+00:00)

KORONAS-FOTON - Pass Details

Date: 13 December 2025
Orbit: 433 x 447 km, 82.4° (Epoch: 20 January)

Event Time Altitude Azimuth Distance (km) Brightness Sun altitude
Rises 23:30:02 0° 173° (S) 2,454 7.5 -9.0°
Reaches altitude 10° 23:32:11 10° 166° (SSE) 1,577 6.4 -9.5°
Maximum altitude 23:35:27 42° 94° (E) 652 3.9 -10.3°
Drops below altitude 10° 23:38:41 10° 22° (NNE) 1,561 5.8 -11.0°
Enters shadow 23:39:11 - 19° (NNE) 1,763 6.1 -11.1°
